CWLEESTJE Weather Reports


time (UTC)temp
C
wind
direction
speed
KPH
gust
KPH
rain 1hr
cm
rain 24hr
cm
rain mn
cm
humidity
%
barometer
mb
20260510091544 15 23 24.1 40.2 0.00 0.00 0.00 59
20260510090527 15 34 24.1 41.8 0.00 0.00 0.00 59
20260510085534 15 38 20.9 38.6 0.00 0.00 0.00 62
20260510084519 15 28 27.4 38.6 0.00 0.00 0.00 64
20260510083523 15 18 22.5 35.4 0.00 0.00 0.00 67
20260510082536 15 22 25.7 35.4 0.00 0.00 0.00 66
20260510081520 14 49 25.7 40.2 0.00 0.00 0.00 68
20260510080532 14 37 24.1 38.6 0.00 0.00 0.00 68
20260510075532 14 49 22.5 41.8 0.00 0.00 0.00 69
20260510074545 14 31 24.1 40.2 0.00 0.00 0.00 70
20260510073533 14 20 22.5 33.8 0.00 0.00 0.00 71
20260510072536 13 25 22.5 40.2 0.00 0.00 0.00 72
20260510071549 13 55 22.5 35.4 0.00 0.00 0.00 73
20260510070531 13 54 17.7 30.6 0.00 0.00 0.00 74
20260510065525 13 30 22.5 38.6 0.00 0.00 0.00 75
20260510064528 13 48 19.3 30.6 0.00 0.00 0.00 76
20260510063521 12 30 20.9 30.6 0.00 0.00 0.00 78
20260510062520 12 9 16.1 33.8 0.00 0.00 0.00 80
20260510061533 12 34 16.1 29.0 0.00 0.00 0.00 82
20260510060516 11 34 16.1 32.2 0.00 0.00 0.00 85
20260510055550 11 50 17.7 29.0 0.00 0.00 0.00 86
20260510054544 11 46 14.5 25.7 0.00 0.00 0.00 87
20260510053526 11 32 14.5 25.7 0.00 0.00 0.00 88
20260510052538 10 39 16.1 29.0 0.00 0.00 0.00 89
20260510051517 10 24 12.9 20.9 0.00 0.00 0.00 89
20260510050530 10 12 11.3 17.7 0.00 0.00 0.00 89
20260510045600 10 350 11.3 19.3 0.00 0.00 0.00 89
20260510044522 10 29 9.7 14.5 0.00 0.00 0.00 88
20260510043535 10 5 9.7 16.1 0.00 0.00 0.00 88
20260510042539 10 25 9.7 16.1 0.00 0.00 0.00 88
20260510041527 10 24 11.3 17.7 0.00 0.00 0.00 88
20260510040530 10 30 12.9 20.9 0.00 0.00 0.00 88
20260510035524 10 18 12.9 19.3 0.00 0.00 0.00 88
20260510034527 10 37 11.3 19.3 0.00 0.00 0.00 88
20260510033541 10 19 9.7 17.7 0.00 0.00 0.00 88
20260510032525 10 38 9.7 16.1 0.00 0.00 0.00 88
20260510031539 10 22 11.3 16.1 0.00 0.00 0.00 87
20260510030521 10 21 9.7 17.7 0.00 0.00 0.00 87
20260510025551 10 22 11.3 19.3 0.00 0.00 0.00 88
20260510024544 10 31 11.3 19.3 0.00 0.00 0.00 88
20260510023528 10 36 11.3 14.5 0.00 0.00 0.00 88
20260510022540 10 28 8.0 12.9 0.00 0.00 0.00 88
20260510021524 10 34 9.7 14.5 0.00 0.00 0.00 88
20260510020528 10 19 9.7 16.1 0.00 0.00 0.00 88
20260510015521 10 18 9.7 14.5 0.00 0.00 0.00 87
20260510014521 10 17 8.0 12.9 0.00 0.00 0.00 87
20260510013555 10 18 8.0 12.9 0.00 0.00 0.00 87
20260510012518 10 20 9.7 14.5 0.00 0.00 0.00 86
20260510011531 10 15 9.7 14.5 0.00 0.00 0.00 86
20260510010546 10 17 9.7 14.5 0.00 0.00 0.00 85
20260510005549 10 16 9.7 14.5 0.00 0.00 0.00 85
20260510004541 10 29 9.7 16.1 0.00 0.00 0.00 84
20260510003521 11 23 8.0 12.9 0.00 0.00 0.00 84
20260510002534 11 26 6.4 12.9 0.00 0.00 0.00 83
20260510001518 11 19 6.4 14.5 0.00 0.00 0.00 83
20260510000530 11 28 9.7 16.1 0.00 0.00 0.00 83
20260509235534 11 32 12.9 17.7 0.00 0.00 0.00 82
20260509234527 11 34 9.7 14.5 0.00 0.00 0.00 82
20260509233531 11 24 11.3 17.7 0.00 0.00 0.00 81
20260509232525 11 24 12.9 17.7 0.00 0.00 0.00 80
20260509231524 11 24 12.9 19.3 0.00 0.00 0.00 80
20260509230537 11 34 12.9 19.3 0.00 0.00 0.00 80
20260509225520 11 28 12.9 20.9 0.00 0.00 0.00 79
20260509224524 11 32 12.9 19.3 0.00 0.00 0.00 79
20260509223518 11 28 12.9 20.9 0.00 0.00 0.00 79
20260509222522 11 30 11.3 20.9 0.00 0.00 0.00 79
20260509221556 11 360 12.9 17.7 0.00 0.00 0.00 78
20260509220541 11 13 11.3 19.3 0.00 0.00 0.00 78
20260509215522 11 360 11.3 17.7 0.00 0.00 0.00 78
20260509214536 11 13 12.9 17.7 0.00 0.00 0.00 77
20260509213521 11 15 9.7 17.7 0.00 0.00 0.00 77
20260509212534 11 23 9.7 17.7 0.00 0.00 0.00 77
20260509211518 11 28 11.3 16.1 0.00 0.00 0.00 77
20260509210523 12 14 11.3 16.1 0.00 0.00 0.00 76
20260509205536 12 11 11.3 14.5 0.00 0.00 0.00 75
20260509204546 12 15 9.7 14.5 0.00 0.00 0.00 74
20260509203551 12 22 12.9 16.1 0.00 0.00 0.00 73
20260509202523 13 22 11.3 14.5 0.00 0.00 0.00 72
20260509201526 13 30 8.0 12.9 0.00 0.00 0.00 71
20260509200539 13 32 8.0 17.7 0.00 0.00 0.00 71
20260509195524 13 36 9.7 17.7 0.00 0.00 0.00 70
20260509194537 13 5 11.3 16.1 0.00 0.00 0.00 70
20260509193521 13 19 11.3 16.1 0.00 0.00 0.00 70
20260509192521 14 20 9.7 17.7 0.00 0.00 0.00 70
20260509191534 14 14 11.3 16.1 0.00 0.00 0.00 69
20260509190518 15 9 12.9 16.1 0.00 0.00 0.00 68
20260509185531 15 16 14.5 20.9 0.00 0.00 0.00 67
20260509184535 15 9 14.5 22.5 0.00 0.00 0.00 66
20260509183529 16 37 14.5 20.9 0.00 0.00 0.00 65
20260509182532 16 22 11.3 22.5 0.00 0.00 0.00 65
20260509181542 17 22 16.1 25.7 0.00 0.00 0.00 63
20260509180526 17 11 14.5 22.5 0.00 0.00 0.00 63
20260509175538 17 44 14.5 24.1 0.00 0.00 0.00 63
20260509174523 17 10 14.5 29.0 0.00 0.00 0.00 62
20260509173527 18 5 17.7 29.0 0.00 0.00 0.00 61
20260509172540 18 360 12.9 29.0 0.00 0.00 0.00 63
20260509171532 18 14 16.1 30.6 0.00 0.00 0.00 61
20260509170536 18 13 17.7 30.6 0.00 0.00 0.00 61
20260509165527 19 19 17.7 29.0 0.00 0.00 0.00 61
20260509164531 19 17 14.5 29.0 0.00 0.00 0.00 60
20260509163543 19 5 24.1 33.8 0.00 0.00 0.00 59
20260509162527 20 5 19.3 32.2 0.00 0.00 0.00 58
20260509161541 20 15 17.7 33.8 0.00 0.00 0.00 60
20260509160525 20 31 22.5 33.8 0.00 0.00 0.00 58
20260509155529 20 17 22.5 37.0 0.00 0.00 0.00 58
20260509154521 20 24 19.3 30.6 0.00 0.00 0.00 58
20260509153522 21 30 11.3 24.1 0.00 0.00 0.00 54
20260509152556 21 24 14.5 29.0 0.00 0.00 0.00 53
20260509151530 21 30 9.7 20.9 0.00 0.00 0.00 55
20260509150553 20 40 9.7 19.3 0.00 0.00 0.00 55
20260509145525 20 46 14.5 25.7 0.00 0.00 0.00 54
20260509144530 21 56 12.9 24.1 0.00 0.00 0.00 53
20260509143519 20 55 16.1 25.7 0.00 0.00 0.00 54
20260509142519 20 82 11.3 19.3 0.00 0.00 0.00 55
20260509141533 20 44 16.1 24.1 0.00 0.00 0.00 54
20260509140607 21 89 14.5 20.9 0.00 0.00 0.00 56
20260509135531 21 76 8.0 16.1 0.00 0.00 0.00 55
20260509134543 20 54 6.4 22.5 0.00 0.00 0.00 54
20260509133527 21 67 16.1 25.7 0.00 0.00 0.00 54
20260509132532 21 76 11.3 22.5 0.00 0.00 0.00 56
20260509131524 21 40 12.9 33.8 0.00 0.00 0.00 53
20260509130524 20 86 12.9 24.1 0.00 0.00 0.00 56
20260509125558 20 52 14.5 25.7 0.00 0.00 0.00 53
20260509124522 20 45 4.8 24.1 0.00 0.00 0.00 55
20260509123534 20 99 12.9 20.9 0.00 0.00 0.00 56
20260509122518 21 53 16.1 20.9 0.00 0.00 0.00 54
20260509121532 21 37 11.3 19.3 0.00 0.00 0.00 55
20260509120536 21 71 14.5 19.3 0.00 0.00 0.00 55
20260509115524 20 105 6.4 16.1 0.00 0.00 0.00 56
20260509114529 20 60 1.6 22.5 0.00 0.00 0.00 54
20260509113542 20 40 9.7 24.1 0.00 0.00 0.00 55
20260509112526 20 40 14.5 20.9 0.00 0.00 0.00 54
20260509111540 20 83 14.5 22.5 0.00 0.00 0.00 55
20260509110525 20 50 6.4 25.7 0.00 0.00 0.00 55
20260509105538 20 67 12.9 22.5 0.00 0.00 0.00 56
20260509104522 20 58 16.1 25.7 0.00 0.00 0.00 54
20260509103522 20 76 12.9 25.7 0.00 0.00 0.00 57
20260509102556 20 65 12.9 24.1 0.00 0.00 0.00 58
20260509101528 20 98 12.9 24.1 0.00 0.00 0.00 56
20260509100533 19 42 12.9 22.5 0.00 0.00 0.00 57
20260509095546 19 58 16.1 25.7 0.00 0.00 0.00 57
20260509094530 19 80 17.7 24.1 0.00 0.00 0.00 56
20260509093523 19 80 14.5 25.7 0.00 0.00 0.00 57
20260509092553 18 87 16.1 20.9 0.00 0.00 0.00 60